Location: Gro�bocka
(50.8204°N, 11.9702°E)
Time: 14:00:41
(UTC+00:00)

Cosmos 2227 Rocket - Pass Details

Date: 29 October 2020
Orbit: 839 x 845 km, 71.0° (Epoch: 29 November)

Event Time Altitude Azimuth Distance (km) Brightness Sun altitude
Rises 16:50:06 0° 330° (NNW) 3,409 5.6 -9.7°
Reaches altitude 10° 16:52:33 10° 331° (NNW) 2,471 4.9 -10.1°
Maximum altitude 16:58:15 85° 60° (ENE) 853 2.2 -11.0°
Drops below altitude 10° 17:03:55 10° 150° (SSE) 2,460 4.4 -11.9°
Sets 17:06:21 0° 151° (SSE) 3,392 5.1 -12.3°
